Location: Bauen
(46.9356°N, 8.5784°E)
Time: 09:48:20
(UTC+00:00)

Aureole 2 Rocket - Pass Details

Date: 18 February 2020
Orbit: 308 x 449 km, 73.9° (Epoch: 03 April)

Event Time Altitude Azimuth Distance (km) Brightness Sun altitude
Exits shadow 03:23:47 - 60° (ENE) 1,531 6.0 -31.6°
Enters shadow 04:31:22 -50° 332° (NNW) 10,163 9.2 -20.2°
Maximum altitude 04:57:34 74° 250° (WSW) 399 1.9 -15.8°
